| time (UTC) | temp F | wind direction | speed MPH | gust MPH | rain 1hr in | rain 24hr in | rain mn in | humidity % | barometer mb |
| 20260509221035 | 52 | 55 | 1.0 | 3.0 | 0.00 | 0.08 | 0.08 | 100 | 1010.5 |
| 20260509220035 | 52 | 148 | 0.0 | 1.0 | 0.02 | 0.08 | 0.08 | 100 | 1010.4 |
| 20260509215535 | 52 | 209 | 0.0 | 1.0 | 0.02 | 0.08 | 0.08 | 100 | 1010.4 |
| 20260509215034 | 52 | 78 | 0.0 | 1.0 | 0.02 | 0.08 | 0.08 | 100 | 1010.6 |
| 20260509214535 | 52 | 277 | 0.0 | 1.0 | 0.02 | 0.08 | 0.08 | 100 | 1010.6 |
| 20260509214035 | 52 | 221 | 1.0 | 2.0 | 0.02 | 0.08 | 0.08 | 100 | 1010.6 |
| 20260509213535 | 53 | 347 | 2.0 | 5.0 | 0.02 | 0.08 | 0.08 | 100 | 1010.6 |
| 20260509213035 | 53 | 154 | 2.0 | 3.0 | 0.02 | 0.08 | 0.08 | 100 | 1010.5 |
| 20260509212535 | 53 | 224 | 1.0 | 2.0 | 0.02 | 0.08 | 0.08 | 100 | 1010.6 |
| 20260509212034 | 53 | 227 | 0.0 | 0.0 | 0.02 | 0.08 | 0.08 | 100 | 1010.5 |
| 20260509211535 | 52 | 171 | 0.0 | 0.0 | 0.02 | 0.08 | 0.08 | 100 | 1010.3 |
| 20260509211034 | 52 | 11 | 0.0 | 1.0 | 0.02 | 0.08 | 0.08 | 100 | 1010.2 |
| 20260509210535 | 52 | 18 | 1.0 | 2.0 | 0.00 | 0.06 | 0.06 | 100 | 1010.2 |
| 20260509205535 | 52 | 272 | 1.0 | 3.0 | 0.00 | 0.06 | 0.06 | 100 | 1010.4 |
| 20260509205035 | 52 | 259 | 2.0 | 6.0 | 0.00 | 0.06 | 0.06 | 100 | 1010.6 |
| 20260509204535 | 52 | 122 | 1.0 | 3.0 | 0.00 | 0.06 | 0.06 | 100 | 1010.4 |
| 20260509203535 | 52 | 28 | 1.0 | 5.0 | 0.00 | 0.06 | 0.06 | 100 | 1010.5 |
| 20260509203034 | 52 | 358 | 1.0 | 5.0 | 0.00 | 0.06 | 0.06 | 100 | 1010.3 |
| 20260509202534 | 52 | 21 | 2.0 | 5.0 | 0.00 | 0.06 | 0.06 | 100 | 1010.2 |
| 20260509202034 | 52 | 60 | 2.0 | 6.0 | 0.00 | 0.06 | 0.06 | 100 | 1010.1 |
| 20260509201535 | 53 | 346 | 2.0 | 5.0 | 0.00 | 0.06 | 0.06 | 100 | 1010.2 |
| 20260509201034 | 53 | 53 | 1.0 | 3.0 | 0.02 | 0.06 | 0.06 | 100 | 1010.3 |
| 20260509200535 | 53 | 358 | 1.0 | 3.0 | 0.02 | 0.06 | 0.06 | 100 | 1010.2 |
| 20260509200034 | 53 | 55 | 0.0 | 1.0 | 0.02 | 0.06 | 0.06 | 100 | 1010.2 |
| 20260509195535 | 53 | 300 | 1.0 | 2.0 | 0.02 | 0.06 | 0.06 | 99 | 1010.4 |
| 20260509195035 | 53 | 47 | 2.0 | 2.0 | 0.02 | 0.06 | 0.06 | 98 | 1010.3 |
| 20260509194534 | 53 | 21 | 0.0 | 2.0 | 0.02 | 0.06 | 0.06 | 97 | 1010.3 |
| 20260509194035 | 53 | 339 | 2.0 | 3.0 | 0.02 | 0.06 | 0.06 | 96 | 1010.2 |
| 20260509193534 | 54 | 23 | 1.0 | 2.0 | 0.02 | 0.06 | 0.06 | 94 | 1010.2 |
| 20260509193035 | 54 | 216 | 1.0 | 5.0 | 0.02 | 0.06 | 0.06 | 93 | 1010.2 |
| 20260509192534 | 55 | 2 | 1.0 | 3.0 | 0.02 | 0.06 | 0.06 | 90 | 1010.2 |
| 20260509192035 | 55 | 356 | 1.0 | 3.0 | 0.02 | 0.06 | 0.06 | 91 | 1010.2 |
| 20260509191534 | 56 | 47 | 0.0 | 1.0 | 0.04 | 0.06 | 0.06 | 91 | 1010.3 |
| 20260509191035 | 56 | 350 | 1.0 | 3.0 | 0.02 | 0.04 | 0.04 | 90 | 1010.3 |
| 20260509190534 | 56 | 85 | 1.0 | 2.0 | 0.02 | 0.04 | 0.04 | 87 | 1010.4 |
| 20260509190035 | 56 | 33 | 0.0 | 2.0 | 0.02 | 0.04 | 0.04 | 91 | 1010.4 |
| 20260509185535 | 56 | 93 | 2.0 | 3.0 | 0.02 | 0.04 | 0.04 | 89 | 1010.5 |
| 20260509185034 | 55 | 58 | 1.0 | 3.0 | 0.02 | 0.04 | 0.04 | 89 | 1010.6 |
| 20260509184534 | 55 | 57 | 1.0 | 2.0 | 0.02 | 0.04 | 0.04 | 90 | 1010.6 |
| 20260509184035 | 54 | 45 | 1.0 | 1.0 | 0.02 | 0.04 | 0.04 | 92 | 1010.7 |
| 20260509183534 | 54 | 76 | 0.0 | 3.0 | 0.02 | 0.04 | 0.04 | 92 | 1010.7 |
| 20260509183034 | 55 | 58 | 1.0 | 3.0 | 0.02 | 0.04 | 0.04 | 90 | 1010.7 |
| 20260509182034 | 55 | 12 | 2.0 | 6.0 | 0.02 | 0.04 | 0.04 | 90 | 1010.7 |
| 20260509181035 | 56 | 214 | 1.0 | 1.0 | 0.00 | 0.02 | 0.02 | 90 | 1010.7 |
| 20260509180534 | 56 | 45 | 0.0 | 2.0 | 0.00 | 0.02 | 0.02 | 90 | 1010.8 |
| 20260509175534 | 56 | 211 | 1.0 | 3.0 | 0.00 | 0.02 | 0.02 | 87 | 1011.3 |
| 20260509175034 | 56 | 197 | 0.0 | 2.0 | 0.00 | 0.02 | 0.02 | 84 | 1011.6 |
| 20260509174534 | 56 | 240 | 1.0 | 2.0 | 0.00 | 0.02 | 0.02 | 85 | 1011.6 |
| 20260509174034 | 57 | 1 | 0.0 | 2.0 | 0.00 | 0.02 | 0.02 | 81 | 1011.6 |
| 20260509173534 | 57 | 21 | 2.0 | 3.0 | 0.00 | 0.02 | 0.02 | 80 | 1011.2 |
| 20260509173034 | 57 | 13 | 2.0 | 5.0 | 0.00 | 0.02 | 0.02 | 82 | 1011.2 |
| 20260509172534 | 57 | 96 | 1.0 | 3.0 | 0.00 | 0.02 | 0.02 | 82 | 1011.2 |
| 20260509172034 | 57 | 78 | 2.0 | 5.0 | 0.00 | 0.02 | 0.02 | 79 | 1011.1 |
| 20260509171534 | 57 | 42 | 1.0 | 3.0 | 0.00 | 0.02 | 0.02 | 78 | 1011.2 |
| 20260509171034 | 56 | 45 | 1.0 | 5.0 | 0.00 | 0.02 | 0.02 | 84 | 1011.3 |
| 20260509170537 | 56 | 52 | 2.0 | 5.0 | 0.00 | 0.02 | 0.02 | 81 | 1011.4 |
| 20260509170034 | 55 | 3 | 1.0 | 2.0 | 0.00 | 0.02 | 0.02 | 83 | 1011.4 |
| 20260509165534 | 55 | 72 | 2.0 | 3.0 | 0.00 | 0.02 | 0.02 | 81 | 1011.5 |
| 20260509165035 | 54 | 276 | 2.0 | 5.0 | 0.00 | 0.02 | 0.02 | 83 | 1011.5 |
| 20260509164534 | 54 | 60 | 2.0 | 5.0 | 0.00 | 0.02 | 0.02 | 84 | 1011.4 |
| 20260509164033 | 54 | 28 | 2.0 | 5.0 | 0.00 | 0.02 | 0.02 | 83 | 1011.6 |
| 20260509163534 | 53 | 95 | 1.0 | 2.0 | 0.00 | 0.02 | 0.02 | 86 | 1011.7 |
| 20260509163033 | 53 | 54 | 2.0 | 3.0 | 0.00 | 0.02 | 0.02 | 86 | 1011.7 |
| 20260509162534 | 53 | 34 | 2.0 | 3.0 | 0.00 | 0.02 | 0.02 | 85 | 1011.6 |
| 20260509162034 | 53 | 72 | 1.0 | 3.0 | 0.00 | 0.02 | 0.02 | 87 | 1011.8 |
| 20260509161534 | 52 | 135 | 1.0 | 3.0 | 0.00 | 0.02 | 0.02 | 87 | 1011.9 |
| 20260509161034 | 52 | 61 | 2.0 | 3.0 | 0.00 | 0.02 | 0.02 | 85 | 1011.9 |
| 20260509160533 | 52 | 111 | 1.0 | 2.0 | 0.00 | 0.02 | 0.02 | 86 | 1011.9 |
| 20260509160034 | 52 | 50 | 2.0 | 5.0 | 0.00 | 0.02 | 0.02 | 87 | 1011.9 |
| 20260509155533 | 52 | 226 | 0.0 | 2.0 | 0.00 | 0.02 | 0.02 | 87 | 1012.0 |
| 20260509155034 | 52 | 109 | 1.0 | 2.0 | 0.00 | 0.02 | 0.02 | 85 | 1011.9 |
| 20260509154534 | 52 | 158 | 1.0 | 2.0 | 0.00 | 0.02 | 0.02 | 87 | 1012.0 |
| 20260509154034 | 51 | 55 | 2.0 | 3.0 | 0.00 | 0.02 | 0.02 | 86 | 1012.2 |
| 20260509153033 | 50 | 104 | 1.0 | 5.0 | 0.00 | 0.02 | 0.02 | 87 | 1012.3 |
| 20260509152034 | 50 | 98 | 1.0 | 2.0 | 0.00 | 0.02 | 0.02 | 88 | 1012.2 |
| 20260509151534 | 50 | 39 | 1.0 | 3.0 | 0.00 | 0.02 | 0.02 | 86 | 1012.1 |
| 20260509151033 | 50 | 47 | 2.0 | 5.0 | 0.00 | 0.02 | 0.02 | 86 | 1012.0 |
| 20260509150534 | 51 | 11 | 1.0 | 3.0 | 0.00 | 0.02 | 0.02 | 86 | 1012.1 |
| 20260509145534 | 50 | 101 | 0.0 | 5.0 | 0.00 | 0.02 | 0.02 | 87 | 1012.3 |
| 20260509145033 | 49 | 114 | 2.0 | 6.0 | 0.00 | 0.02 | 0.02 | 84 | 1012.5 |
| 20260509144534 | 49 | 57 | 1.0 | 3.0 | 0.00 | 0.02 | 0.02 | 83 | 1012.6 |
| 20260509144034 | 49 | 100 | 3.0 | 5.0 | 0.00 | 0.02 | 0.02 | 89 | 1012.6 |
| 20260509143534 | 48 | 70 | 2.0 | 3.0 | 0.00 | 0.02 | 0.02 | 88 | 1012.5 |
| 20260509143033 | 48 | 47 | 1.0 | 3.0 | 0.00 | 0.02 | 0.02 | 90 | 1012.5 |
| 20260509142034 | 47 | 64 | 2.0 | 6.0 | 0.00 | 0.02 | 0.02 | 91 | 1012.7 |
| 20260509141534 | 47 | 35 | 2.0 | 5.0 | 0.00 | 0.02 | 0.02 | 91 | 1012.7 |
| 20260509141034 | 47 | 63 | 1.0 | 2.0 | 0.00 | 0.02 | 0.02 | 92 | 1012.8 |
| 20260509140534 | 47 | 150 | 1.0 | 2.0 | 0.00 | 0.02 | 0.02 | 93 | 1013.0 |
| 20260509140034 | 47 | 61 | 1.0 | 2.0 | 0.00 | 0.02 | 0.02 | 93 | 1012.9 |
| 20260509135533 | 46 | 157 | 0.0 | 1.0 | 0.00 | 0.02 | 0.02 | 93 | 1013.1 |
| 20260509134534 | 46 | 86 | 1.0 | 2.0 | 0.00 | 0.02 | 0.02 | 95 | 1013.2 |
| 20260509134033 | 46 | 109 | 0.0 | 3.0 | 0.00 | 0.02 | 0.02 | 96 | 1013.2 |
| 20260509133533 | 45 | 105 | 1.0 | 3.0 | 0.00 | 0.02 | 0.02 | 96 | 1013.2 |
| 20260509132533 | 45 | 183 | 1.0 | 2.0 | 0.00 | 0.02 | 0.02 | 97 | 1013.2 |
| 20260509132033 | 44 | 113 | 1.0 | 2.0 | 0.00 | 0.02 | 0.02 | 95 | 1013.2 |
| 20260509131534 | 44 | 95 | 0.0 | 1.0 | 0.00 | 0.02 | 0.02 | 96 | 1013.2 |
| 20260509130034 | 43 | 170 | 0.0 | 1.0 | 0.00 | 0.02 | 0.02 | 96 | 1013.3 |
| 20260509125033 | 43 | 121 | 0.0 | 0.0 | 0.00 | 0.02 | 0.02 | 98 | 1013.3 |
| 20260509124533 | 43 | 58 | 0.0 | 0.0 | 0.00 | 0.02 | 0.02 | 100 | 1013.3 |
| 20260509124034 | 42 | 195 | 0.0 | 0.0 | 0.00 | 0.02 | 0.02 | 100 | 1013.3 |
| 20260509123533 | 42 | 68 | 0.0 | 0.0 | 0.00 | 0.02 | 0.02 | 99 | 1013.3 |
| 20260509122533 | 42 | 153 | 0.0 | 0.0 | 0.02 | 0.02 | 0.02 | 99 | 1013.3 |
| 20260509122034 | 42 | 159 | 0.0 | 0.0 | 0.02 | 0.02 | 0.02 | 99 | 1013.4 |
| 20260509121033 | 42 | 210 | 0.0 | 0.0 | 0.02 | 0.02 | 0.02 | 98 | 1013.7 |
| 20260509120533 | 42 | 203 | 0.0 | 1.0 | 0.02 | 0.02 | 0.02 | 99 | 1013.6 |
| 20260509120033 | 42 | 141 | 0.0 | 0.0 | 0.02 | 0.02 | 0.02 | 97 | 1013.3 |
| 20260509115033 | 42 | 93 | 0.0 | 0.0 | 0.02 | 0.02 | 0.02 | 95 | 1013.6 |
| 20260509114033 | 42 | 174 | 0.0 | 1.0 | 0.02 | 0.02 | 0.02 | 96 | 1013.6 |
| 20260509112033 | 42 | 243 | 1.0 | 1.0 | 0.00 | 0.00 | 0.00 | 94 | 1013.7 |
| 20260509111534 | 42 | 119 | 0.0 | 1.0 | 0.00 | 0.00 | 0.00 | 92 | 1013.7 |
| 20260509111033 | 42 | 144 | 0.0 | 1.0 | 0.00 | 0.00 | 0.00 | 92 | 1013.7 |
| 20260509110533 | 42 | 335 | 0.0 | 3.0 | 0.00 | 0.00 | 0.00 | 89 | 1013.7 |
| 20260509110033 | 42 | 201 | 1.0 | 3.0 | 0.00 | 0.00 | 0.00 | 92 | 1013.8 |
| 20260509105533 | 42 | 213 | 2.0 | 2.0 | 0.00 | 0.00 | 0.00 | 91 | 1013.6 |
| 20260509105033 | 42 | 9 | 0.0 | 1.0 | 0.00 | 0.00 | 0.00 | 91 | 1013.6 |
| 20260509104533 | 42 | 26 | 1.0 | 2.0 | 0.00 | 0.00 | 0.00 | 90 | 1013.7 |
| 20260509104033 | 42 | 229 | 1.0 | 2.0 | 0.00 | 0.00 | 0.00 | 80 | 1013.7 |
| 20260509103533 | 42 | 223 | 1.0 | 2.0 | 0.00 | 0.00 | 0.00 | 82 | 1013.7 |
| 20260509103033 | 41 | 250 | 1.0 | 1.0 | 0.00 | 0.00 | 0.00 | 81 | 1013.4 |
| 20260509102533 | 41 | 226 | 1.0 | 2.0 | 0.00 | 0.00 | 0.00 | 85 | 1013.4 |
| 20260509102033 | 41 | 261 | 1.0 | 1.0 | 0.00 | 0.00 | 0.00 | 85 | 1013.4 |
| 20260509100533 | 42 | 253 | 1.0 | 2.0 | 0.00 | 0.00 | 0.00 | 77 | 1012.9 |
| 20260509100033 | 42 | 264 | 1.0 | 1.0 | 0.00 | 0.00 | 0.00 | 78 | 1012.9 |
| 20260509095533 | 42 | 261 | 1.0 | 1.0 | 0.00 | 0.00 | 0.00 | 77 | 1013.0 |
| 20260509095033 | 42 | 299 | 0.0 | 1.0 | 0.00 | 0.00 | 0.00 | 76 | 1012.7 |
| 20260509094533 | 42 | 320 | 0.0 | 0.0 | 0.00 | 0.00 | 0.00 | 77 | 1012.7 |
| 20260509094033 | 42 | 343 | 0.0 | 1.0 | 0.00 | 0.00 | 0.00 | 73 | 1012.5 |
| 20260509093532 | 42 | 269 | 0.0 | 1.0 | 0.00 | 0.00 | 0.00 | 71 | 1012.5 |
| 20260509093033 | 42 | 338 | 1.0 | 1.0 | 0.00 | 0.00 | 0.00 | 71 | 1012.4 |
| 20260509092533 | 42 | 37 | 0.0 | 1.0 | 0.00 | 0.00 | 0.00 | 73 | 1012.3 |
| 20260509092033 | 41 | 256 | 0.0 | 0.0 | 0.00 | 0.00 | 0.00 | 73 | 1012.5 |
| 20260509090033 | 41 | 156 | 0.0 | 0.0 | 0.00 | 0.00 | 0.00 | 76 | 1012.3 |
| 20260509085532 | 41 | 227 | 0.0 | 0.0 | 0.00 | 0.00 | 0.00 | 74 | 1012.5 |
| 20260509085033 | 40 | 227 | 0.0 | 0.0 | 0.00 | 0.00 | 0.00 | 74 | 1012.4 |
| 20260509084532 | 40 | 227 | 0.0 | 1.0 | 0.00 | 0.00 | 0.00 | 77 | 1012.5 |
| 20260509084033 | 40 | 269 | 1.0 | 1.0 | 0.00 | 0.00 | 0.00 | 75 | 1012.7 |
| 20260509083533 | 40 | 218 | 1.0 | 2.0 | 0.00 | 0.00 | 0.00 | 80 | 1012.5 |
| 20260509083033 | 40 | 230 | 1.0 | 1.0 | 0.00 | 0.00 | 0.00 | 76 | 1012.4 |
| 20260509082033 | 40 | 232 | 0.0 | 1.0 | 0.00 | 0.00 | 0.00 | 74 | 1012.3 |
| 20260509081532 | 40 | 243 | 0.0 | 1.0 | 0.00 | 0.00 | 0.00 | 78 | 1012.4 |
| 20260509081033 | 40 | 227 | 1.0 | 2.0 | 0.00 | 0.00 | 0.00 | 80 | 1012.5 |
| 20260509080533 | 40 | 235 | 2.0 | 2.0 | 0.00 | 0.00 | 0.00 | 80 | 1012.7 |
| 20260509080033 | 39 | 230 | 1.0 | 2.0 | 0.00 | 0.00 | 0.00 | 82 | 1012.7 |
| 20260509075532 | 39 | 143 | 0.0 | 0.0 | 0.00 | 0.00 | 0.00 | 82 | 1012.7 |
| 20260509075032 | 40 | 102 | 1.0 | 1.0 | 0.00 | 0.00 | 0.00 | 80 | 1012.6 |
| 20260509074033 | 42 | 186 | 1.0 | 2.0 | 0.00 | 0.00 | 0.00 | 70 | 1012.4 |
| 20260509073533 | 43 | 220 | 1.0 | 1.0 | 0.00 | 0.00 | 0.00 | 65 | 1012.5 |
| 20260509072533 | 42 | 244 | 0.0 | 1.0 | 0.00 | 0.00 | 0.00 | 69 | 1012.5 |
| 20260509072033 | 42 | 245 | 0.0 | 1.0 | 0.00 | 0.00 | 0.00 | 70 | 1012.6 |
| 20260509071533 | 42 | 246 | 1.0 | 1.0 | 0.00 | 0.00 | 0.00 | 71 | 1012.7 |
| 20260509071033 | 42 | 250 | 1.0 | 1.0 | 0.00 | 0.00 | 0.00 | 71 | 1012.7 |
| 20260509070533 | 42 | 246 | 1.0 | 2.0 | 0.00 | 0.00 | 0.00 | 71 | 1012.7 |
| 20260509070033 | 42 | 253 | 1.0 | 2.0 | 0.00 | 0.00 | 0.00 | 71 | 1012.7 |
| 20260509065532 | 42 | 239 | 1.0 | 2.0 | 0.00 | 0.00 | 0.00 | 71 | 1012.7 |
| 20260509065033 | 42 | 240 | 1.0 | 2.0 | 0.00 | 0.00 | 0.00 | 72 | 1012.7 |
| 20260509064532 | 42 | 246 | 1.0 | 2.0 | 0.00 | 0.00 | 0.00 | 70 | 1012.7 |
| 20260509064032 | 42 | 249 | 1.0 | 2.0 | 0.00 | 0.00 | 0.00 | 72 | 1012.6 |
| 20260509063532 | 42 | 244 | 1.0 | 1.0 | 0.00 | 0.00 | 0.00 | 71 | 1012.6 |
| 20260509063032 | 42 | 237 | 1.0 | 2.0 | 0.00 | 0.00 | 0.00 | 71 | 1012.5 |
| 20260509062533 | 42 | 248 | 1.0 | 1.0 | 0.00 | 0.00 | 0.00 | 71 | 1012.4 |
| 20260509062032 | 42 | 241 | 1.0 | 1.0 | 0.00 | 0.00 | 0.00 | 70 | 1012.5 |
| 20260509061532 | 42 | 244 | 1.0 | 2.0 | 0.00 | 0.00 | 0.00 | 70 | 1012.5 |
| 20260509061033 | 42 | 230 | 2.0 | 2.0 | 0.00 | 0.00 | 0.00 | 72 | 1012.4 |
| 20260509060533 | 42 | 215 | 1.0 | 1.0 | 0.00 | 0.00 | 0.00 | 69 | 1012.2 |
| 20260509054532 | 43 | 236 | 0.0 | 1.0 | 0.00 | 0.00 | 0.00 | 69 | 1012.4 |
| 20260509054032 | 43 | 230 | 1.0 | 2.0 | 0.00 | 0.00 | 0.00 | 70 | 1012.5 |
| 20260509053533 | 43 | 236 | 1.0 | 1.0 | 0.00 | 0.00 | 0.00 | 70 | 1012.5 |
| 20260509053032 | 43 | 240 | 1.0 | 1.0 | 0.00 | 0.00 | 0.00 | 69 | 1012.4 |
| 20260509052533 | 43 | 222 | 1.0 | 1.0 | 0.00 | 0.00 | 0.00 | 68 | 1012.6 |
| 20260509052033 | 43 | 236 | 0.0 | 1.0 | 0.00 | 0.00 | 0.00 | 69 | 1012.4 |
| 20260509051533 | 43 | 238 | 0.0 | 0.0 | 0.00 | 0.00 | 0.00 | 67 | 1012.3 |
| 20260509051032 | 43 | 233 | 0.0 | 1.0 | 0.00 | 0.00 | 0.00 | 69 | 1012.4 |
| 20260509050532 | 43 | 219 | 0.0 | 1.0 | 0.00 | 0.00 | 0.00 | 69 | 1012.4 |
| 20260509050032 | 43 | 225 | 1.0 | 2.0 | 0.00 | 0.00 | 0.00 | 68 | 1012.5 |
| 20260509045032 | 44 | 244 | 0.0 | 1.0 | 0.00 | 0.00 | 0.00 | 64 | 1012.3 |
| 20260509044032 | 44 | 239 | 1.0 | 2.0 | 0.00 | 0.00 | 0.00 | 64 | 1012.4 |
| 20260509043532 | 44 | 236 | 1.0 | 1.0 | 0.00 | 0.00 | 0.00 | 64 | 1012.3 |
| 20260509043032 | 44 | 230 | 1.0 | 1.0 | 0.00 | 0.00 | 0.00 | 67 | 1012.3 |
| 20260509042532 | 44 | 238 | 0.0 | 0.0 | 0.00 | 0.00 | 0.00 | 65 | 1012.1 |
| 20260509042031 | 44 | 237 | 0.0 | 0.0 | 0.00 | 0.00 | 0.00 | 65 | 1012.2 |
| 20260509041032 | 44 | 277 | 0.0 | 0.0 | 0.00 | 0.00 | 0.00 | 64 | 1012.1 |
| 20260509040531 | 44 | 275 | 0.0 | 0.0 | 0.00 | 0.00 | 0.00 | 64 | 1012.1 |
| 20260509040032 | 44 | 261 | 0.0 | 1.0 | 0.00 | 0.00 | 0.00 | 65 | 1012.2 |
| 20260509035532 | 44 | 250 | 0.0 | 1.0 | 0.00 | 0.00 | 0.00 | 65 | 1012.0 |
| 20260509035032 | 44 | 253 | 0.0 | 1.0 | 0.00 | 0.00 | 0.00 | 66 | 1011.9 |
| 20260509034532 | 44 | 212 | 0.0 | 1.0 | 0.00 | 0.00 | 0.00 | 65 | 1011.9 |
| 20260509034032 | 45 | 264 | 0.0 | 0.0 | 0.00 | 0.00 | 0.00 | 63 | 1011.8 |
| 20260509033532 | 45 | 264 | 0.0 | 0.0 | 0.00 | 0.00 | 0.00 | 62 | 1011.8 |
| 20260509033032 | 45 | 248 | 0.0 | 1.0 | 0.00 | 0.00 | 0.00 | 63 | 1011.8 |
| 20260509032532 | 45 | 242 | 1.0 | 1.0 | 0.00 | 0.00 | 0.00 | 62 | 1011.9 |
| 20260509032032 | 45 | 243 | 0.0 | 1.0 | 0.00 | 0.00 | 0.00 | 63 | 1011.9 |
| 20260509031032 | 45 | 246 | 1.0 | 1.0 | 0.00 | 0.00 | 0.00 | 61 | 1011.8 |
| 20260509030532 | 45 | 246 | 1.0 | 1.0 | 0.00 | 0.00 | 0.00 | 62 | 1011.9 |
| 20260509030032 | 46 | 229 | 0.0 | 1.0 | 0.00 | 0.00 | 0.00 | 62 | 1011.8 |
| 20260509025532 | 46 | 249 | 0.0 | 1.0 | 0.00 | 0.00 | 0.00 | 61 | 1011.7 |
| 20260509025032 | 46 | 218 | 1.0 | 2.0 | 0.00 | 0.00 | 0.00 | 60 | 1011.8 |
| 20260509024532 | 46 | 236 | 1.0 | 2.0 | 0.00 | 0.00 | 0.00 | 60 | 1011.8 |
| 20260509024032 | 46 | 240 | 1.0 | 2.0 | 0.00 | 0.00 | 0.00 | 58 | 1011.6 |
| 20260509023532 | 47 | 245 | 1.0 | 2.0 | 0.00 | 0.00 | 0.00 | 58 | 1011.6 |
| 20260509023032 | 47 | 233 | 1.0 | 2.0 | 0.00 | 0.00 | 0.00 | 58 | 1011.7 |
| 20260509022532 | 47 | 244 | 1.0 | 2.0 | 0.00 | 0.00 | 0.00 | 58 | 1011.7 |
| 20260509022031 | 47 | 257 | 1.0 | 2.0 | 0.00 | 0.00 | 0.00 | 59 | 1011.7 |
| 20260509021532 | 47 | 237 | 1.0 | 2.0 | 0.00 | 0.00 | 0.00 | 58 | 1011.6 |
| 20260509020531 | 47 | 247 | 1.0 | 2.0 | 0.00 | 0.00 | 0.00 | 59 | 1011.7 |
| 20260509020032 | 47 | 252 | 1.0 | 2.0 | 0.00 | 0.00 | 0.00 | 59 | 1011.6 |
| 20260509015532 | 47 | 241 | 1.0 | 2.0 | 0.00 | 0.00 | 0.00 | 59 | 1011.4 |
| 20260509015031 | 47 | 238 | 1.0 | 2.0 | 0.00 | 0.00 | 0.00 | 58 | 1011.3 |
| 20260509014532 | 47 | 255 | 1.0 | 2.0 | 0.00 | 0.00 | 0.00 | 59 | 1011.2 |
| 20260509014032 | 47 | 260 | 1.0 | 2.0 | 0.00 | 0.00 | 0.00 | 59 | 1011.2 |
| 20260509012532 | 48 | 235 | 0.0 | 1.0 | 0.00 | 0.00 | 0.00 | 58 | 1010.9 |
| 20260509011531 | 48 | 261 | 1.0 | 2.0 | 0.00 | 0.00 | 0.00 | 58 | 1010.6 |
| 20260509011032 | 48 | 249 | 1.0 | 2.0 | 0.00 | 0.00 | 0.00 | 57 | 1010.6 |
| 20260509010032 | 48 | 246 | 1.0 | 2.0 | 0.00 | 0.00 | 0.00 | 55 | 1010.3 |
| 20260509005532 | 48 | 258 | 1.0 | 2.0 | 0.00 | 0.00 | 0.00 | 55 | 1010.2 |
| 20260509005031 | 49 | 237 | 1.0 | 1.0 | 0.00 | 0.00 | 0.00 | 55 | 1010.2 |
| 20260509004532 | 49 | 227 | 1.0 | 2.0 | 0.00 | 0.00 | 0.00 | 55 | 1010.2 |
| 20260509003031 | 49 | 246 | 1.0 | 2.0 | 0.00 | 0.00 | 0.00 | 53 | 1009.8 |
| 20260509002531 | 49 | 250 | 1.0 | 1.0 | 0.00 | 0.00 | 0.00 | 53 | 1009.6 |
| 20260509002031 | 49 | 234 | 1.0 | 1.0 | 0.00 | 0.00 | 0.00 | 53 | 1009.5 |
| 20260509001531 | 50 | 240 | 0.0 | 1.0 | 0.00 | 0.00 | 0.00 | 52 | 1009.4 |
| 20260509001032 | 50 | 249 | 1.0 | 2.0 | 0.00 | 0.00 | 0.00 | 51 | 1009.2 |
| 20260509000532 | 51 | 255 | 1.0 | 2.0 | 0.00 | 0.00 | 0.00 | 49 | 1009.3 |
| 20260509000031 | 51 | 279 | 1.0 | 2.0 | 0.00 | 0.00 | 0.00 | 49 | 1009.1 |
| 20260508235532 | 51 | 246 | 1.0 | 2.0 | 0.00 | 0.00 | 0.00 | 48 | 1009.2 |
| 20260508235032 | 51 | 244 | 1.0 | 2.0 | 0.00 | 0.00 | 0.00 | 48 | 1009.0 |
| 20260508234531 | 52 | 256 | 1.0 | 2.0 | 0.00 | 0.00 | 0.00 | 47 | 1008.9 |
| 20260508234031 | 52 | 259 | 1.0 | 2.0 | 0.00 | 0.00 | 0.00 | 45 | 1008.9 |
| 20260508233532 | 53 | 256 | 1.0 | 2.0 | 0.00 | 0.00 | 0.00 | 45 | 1008.7 |
| 20260508233031 | 53 | 225 | 2.0 | 5.0 | 0.00 | 0.00 | 0.00 | 44 | 1008.6 |
| 20260508232031 | 53 | 249 | 2.0 | 3.0 | 0.00 | 0.00 | 0.00 | 41 | 1008.7 |
| 20260508231531 | 54 | 251 | 2.0 | 5.0 | 0.00 | 0.00 | 0.00 | 42 | 1008.5 |
| 20260508231031 | 54 | 247 | 2.0 | 3.0 | 0.00 | 0.00 | 0.00 | 41 | 1008.5 |
| 20260508230531 | 54 | 241 | 1.0 | 6.0 | 0.00 | 0.00 | 0.00 | 41 | 1008.5 |
| 20260508230032 | 54 | 289 | 2.0 | 3.0 | 0.00 | 0.00 | 0.00 | 40 | 1008.4 |
| 20260508225531 | 54 | 296 | 3.0 | 5.0 | 0.00 | 0.00 | 0.00 | 40 | 1008.2 |
| 20260508225031 | 55 | 295 | 1.0 | 3.0 | 0.00 | 0.00 | 0.00 | 40 | 1008.4 |
| 20260508224531 | 55 | 193 | 1.0 | 5.0 | 0.00 | 0.00 | 0.00 | 41 | 1008.4 |
| 20260508224031 | 55 | 165 | 1.0 | 5.0 | 0.00 | 0.00 | 0.00 | 40 | 1008.3 |
| 20260508223031 | 55 | 256 | 2.0 | 5.0 | 0.00 | 0.00 | 0.00 | 40 | 1008.2 |
| 20260508222031 | 55 | 282 | 2.0 | 5.0 | 0.00 | 0.00 | 0.00 | 40 | 1008.1 |